Вернуться в каталог

QIANFAN-84

АктивенСвязьPO
NORAD 63170·PAYLOAD·🇨🇳 China

Запущен Mar 11, 2025 с Wenchang Space Launch Site

Loading…

Ближайшие Пролёты (ближайшие 24 часа)

TLE

СвежийSource: Space-Track

Эпоха: Sep 14, 2026, 21:08 UTC

1 63170U 25046M   26257.88074414 -.00000057  00000-0 -10721-3 0  9990
2 63170  88.9653 291.3827 0017155  52.7493 307.5220 13.51017487 84681

Отслеживайте QIANFAN-84 в реальном времени с AllMySat

Download on the App Store